FENGYUN 1C DEB *, 47018

Orbit data source: Space-Track

FENGYUN 1C DEB *, 47018 is space debris in SSO originally from a launch on Mon, 10 May 1999 UTC launched from the Taiyaun Space Center, China (TSC). Fengyun 1C debris stems from the Chinese weather satellite Fengyun-1C, which was intentionally destroyed by a Chinese anti-satellite missile in 2007. This event dramatically increased the amount of space debris, with thousands of trackable fragments posing hazards to satellites and human spaceflight. The Fengyun 1C debris cloud has become a focal point in discussions about space sustainability and the need for international regulations to prevent the creation of new debris.

Loading next visibility...
FENGYUN 1C DEB * details
Identifier
47018, 1999-025FAU
Orbit
SSO
Last TLE update3 months ago
Origin
Flag of CNCASC (CN / PRC)
ManufacturerUnknown
MissionSpacecraft
Bus & MotorUnknown
MassUnknown
Launch date (UTC)
1999-05-10 (26 years ago)
Launch vehicleUnknown
Launch site
Taiyaun Space Center, China (TSC)
Object type
Payload
Rocket body
Debris
Shape & HBRUnknown
Radar Cross SectionSmall (<0.1 m²)

Expand to show TLE details & history

TLE from 3 months ago
0 FENGYUN 1C DEB *
1 47018U 99025FAU 24268.11123966  .00042278  00000-0  14243-1 0  9994
2 47018  98.9291 323.3084 0028972 241.2368 148.5279 14.36574106718860
Epoch: 2024-09-24T02:40Z
Definitive object data (Epoch: 2024-09-24T02:40:11.106Z)
Latitude29.58878°
Longitude-85.2591°
Altitude791.216 km
Speed7.452 km/s
True Right ascension21h 12m 52s
True Declination29° 26' 31"
Sunlit
Object was in full shadow at TLE epoch
Visualization TLE readout
Latitude29.62475°
Longitude12.29749°
Altitude736.315 km
Speed7.494 km/s
Apparent Right ascension03h 28m 26s
Apparent Declination-2° 57' 50"
Sunlit
Object is in full shadow
Visualization observer readout
Local Sidereal Time15:09:55
Azimuth352.336° N
Elevation-52.81°
Doppler factor1
Orbital elements
Apogee altitude787.688 km
Perigee altitude746.286 km
Semi-major axis7,145.124 km
Eccentricity0.0028972
Inclination98.9291°
RAAN323.3084°
Arg. of periapsis241.2368°
True anomaly148.70069°
Mean anomaly148.5279°
Eccentric anomaly148.61435°
Mean motion3.59359 °/min
BSTAR0.014243
Orbital period100.18 mins
Loading maneuver chart data...
Loading historical data...
Loading historical data...
Loading historical data...
Loading historical data...
Loading historical data...
Loading historical data...
Loading historical data...

FENGYUN 1C DEB * Visibility forecast

Observer location: undefined°, undefined

Span
Click to sort rows by Start time (UTC) header in descending order
Start Az.
Max El. time (UTC)
Max El. Az.
Max El.
End time (UTC)
End Az.
8 mins2024-12-26 16:14:51.326Z40.45° NE2024-12-26 16:18:51.326Z98.144° ESE24.886°2024-12-26 16:22:51.326Z153.439° SSE
7 mins2024-12-26 17:53:51.326Z347.28° N2024-12-26 17:56:51.326Z300.236° NW28.47°2024-12-26 18:00:51.326Z234.199° WSW
6 mins2024-12-27 03:26:51.326Z118.157° SE2024-12-27 03:28:51.326Z81.58° E29.223°2024-12-27 03:32:51.326Z9.802° NNE
5 mins2024-12-27 05:05:51.326Z229.982° WSW2024-12-27 05:07:51.326Z264.905° W22.748°2024-12-27 05:10:51.326Z310.969° NW
|